UAE2AR FAOR-OMDB

Flight info

Callsign UAE2AR
Flight time 7h 33m
Altitude 35000
Route EGMEN1C EGMEN UQ2 EPSEK UM307 VBR UM310 NETAN/N0499F370 UM310 DV UL437 BUBEM/N0494F390 UL437 VEDET B400 DAXAM Y414 DEDSO R401 VELIK/N0493F400 R401 MUSAP/N0478F350 R401 PEDOG Q308 KIPOK Q568 IMPED
Aircraft A388/J-SADE2E3FGHIJ3J4J5M1RWXY/LB1D1

Departure

Time 2026-04-26 15:07
Airport O.R. Tambo International Airport (FAOR)

Arrival

Time 2026-04-26 22:41
Airport Dubai International Airport (OMDB)
Time Latitude Longitude Altitude Speed Heading
2026-04-26 14:41 -26.12917 28.23576 5555 ft 0 kts 186°
2026-04-26 14:54 -26.12908 28.23577 5551 ft 3 kts 186°
2026-04-26 14:55 -26.12888 28.23580 5555 ft 3 kts 186°
2026-04-26 14:55 -26.12868 28.23581 5554 ft 3 kts 176°
2026-04-26 14:55 -26.12848 28.23578 5553 ft 3 kts 162°
2026-04-26 14:55 -26.12830 28.23569 5553 ft 3 kts 141°
2026-04-26 14:56 -26.12817 28.23554 5555 ft 3 kts 110°
2026-04-26 14:56 -26.12814 28.23542 5553 ft 2 kts 96°
2026-04-26 14:56 -26.12812 28.23522 5554 ft 3 kts 96°
2026-04-26 14:56 -26.12810 28.23503 5553 ft 1 kts 96°
2026-04-26 14:57 -26.12810 28.23502 5553 ft 2 kts 96°
2026-04-26 15:00 -26.12815 28.23550 5551 ft 15 kts 96°
2026-04-26 15:00 -26.12823 28.23641 5552 ft 11 kts 96°
2026-04-26 15:00 -26.12831 28.23717 5555 ft 10 kts 96°
2026-04-26 15:00 -26.12853 28.23776 5554 ft 7 kts 166°
2026-04-26 15:01 -26.12916 28.23767 5551 ft 11 kts 195°
2026-04-26 15:01 -26.12994 28.23743 5554 ft 12 kts 195°
2026-04-26 15:01 -26.13091 28.23725 5552 ft 15 kts 166°
2026-04-26 15:01 -26.13171 28.23797 5554 ft 17 kts 134°
2026-04-26 15:02 -26.13257 28.23891 5556 ft 18 kts 136°
2026-04-26 15:02 -26.13346 28.23986 5555 ft 16 kts 135°
2026-04-26 15:02 -26.13420 28.24022 5557 ft 12 kts 197°
2026-04-26 15:02 -26.13529 28.23988 5558 ft 18 kts 195°
2026-04-26 15:03 -26.13643 28.23953 5561 ft 16 kts 195°
2026-04-26 15:03 -26.13742 28.23922 5565 ft 14 kts 196°
2026-04-26 15:03 -26.13834 28.23893 5567 ft 15 kts 195°
2026-04-26 15:03 -26.13935 28.23862 5569 ft 14 kts 195°
2026-04-26 15:04 -26.14027 28.23834 5568 ft 13 kts 195°
2026-04-26 15:04 -26.14137 28.23800 5568 ft 18 kts 195°
2026-04-26 15:04 -26.14257 28.23762 5568 ft 17 kts 196°
2026-04-26 15:04 -26.14353 28.23732 5569 ft 11 kts 196°
2026-04-26 15:05 -26.14410 28.23685 5570 ft 10 kts 236°
2026-04-26 15:05 -26.14425 28.23639 5568 ft 10 kts 256°
2026-04-26 15:05 -26.14446 28.23539 5567 ft 8 kts 266°
2026-04-26 15:05 -26.14422 28.23509 5567 ft 7 kts 354°
2026-04-26 15:06 -26.14388 28.23514 5568 ft 0 kts 15°
2026-04-26 15:06 -26.14357 28.23523 5569 ft 21 kts 15°
2026-04-26 15:06 -26.14004 28.23633 5569 ft 86 kts 15°
2026-04-26 15:06 -26.13235 28.23869 5551 ft 140 kts 15°
2026-04-26 15:07 -26.11024 28.24560 5838 ft 174 kts 12°
2026-04-26 15:07 -26.09823 28.24930 6105 ft 183 kts 12°
2026-04-26 15:07 -26.08590 28.25307 6461 ft 186 kts 12°
2026-04-26 15:08 -26.07333 28.25693 6814 ft 187 kts 12°
2026-04-26 15:08 -26.06075 28.26082 7114 ft 192 kts 12°
2026-04-26 15:08 -26.04736 28.26491 7219 ft 206 kts 12°
2026-04-26 15:08 -26.03317 28.26927 7334 ft 217 kts 13°
2026-04-26 15:09 -26.01876 28.27480 7503 ft 224 kts 30°
2026-04-26 15:09 -26.00818 28.28705 7744 ft 226 kts 63°
2026-04-26 15:09 -26.00374 28.30375 8005 ft 227 kts 79°
2026-04-26 15:09 -26.00113 28.32104 8314 ft 225 kts 81°
2026-04-26 15:10 -25.99857 28.33816 8570 ft 227 kts 81°
2026-04-26 15:10 -25.99666 28.34975 8613 ft 232 kts 79°
2026-04-26 15:10 -25.99230 28.37381 8719 ft 244 kts 78°
2026-04-26 15:10 -25.98870 28.39253 9004 ft 253 kts 78°
2026-04-26 15:11 -25.98496 28.41163 9511 ft 262 kts 78°
2026-04-26 15:11 -25.98103 28.43164 10090 ft 268 kts 79°
2026-04-26 15:11 -25.97700 28.45221 10493 ft 281 kts 79°
2026-04-26 15:11 -25.97271 28.47420 10668 ft 301 kts 78°
2026-04-26 15:12 -25.96813 28.49763 10834 ft 319 kts 78°
2026-04-26 15:12 -25.96327 28.52240 10988 ft 336 kts 78°
2026-04-26 15:12 -25.95818 28.54834 11154 ft 351 kts 78°
2026-04-26 15:12 -25.95291 28.57513 11492 ft 356 kts 78°
2026-04-26 15:13 -25.94757 28.60223 11896 ft 360 kts 78°
2026-04-26 15:13 -25.94228 28.62907 12507 ft 362 kts 78°
2026-04-26 15:13 -25.93684 28.65649 13007 ft 366 kts 76°
2026-04-26 15:13 -25.92771 28.68296 13555 ft 368 kts 60°
2026-04-26 15:14 -25.91246 28.70583 14123 ft 370 kts 44°
2026-04-26 15:14 -25.89318 28.72496 14553 ft 373 kts 40°
2026-04-26 15:14 -25.87354 28.74411 15007 ft 377 kts 40°
2026-04-26 15:14 -25.85383 28.76350 15458 ft 381 kts 40°
2026-04-26 15:15 -25.83392 28.78315 15909 ft 385 kts 40°
2026-04-26 15:15 -25.81411 28.80271 16351 ft 388 kts 40°
2026-04-26 15:15 -25.79381 28.82274 16783 ft 392 kts 40°
2026-04-26 15:15 -25.77333 28.84292 17221 ft 396 kts 40°
2026-04-26 15:16 -25.75264 28.86330 17647 ft 399 kts 40°
2026-04-26 15:16 -25.73176 28.88385 18091 ft 403 kts 40°
2026-04-26 15:16 -25.71070 28.90457 18515 ft 406 kts 40°
2026-04-26 15:16 -25.68946 28.92546 18878 ft 410 kts 40°
2026-04-26 15:17 -25.66808 28.94648 19245 ft 412 kts 40°
2026-04-26 15:17 -25.65387 28.96044 19492 ft 414 kts 40°
2026-04-26 15:17 -25.62691 28.99056 19964 ft 418 kts 46°
2026-04-26 15:17 -25.60709 29.01426 20324 ft 421 kts 46°
2026-04-26 15:18 -25.58704 29.03809 20680 ft 423 kts 45°
2026-04-26 15:18 -25.56689 29.06196 21031 ft 426 kts 45°
2026-04-26 15:18 -25.54657 29.08602 21382 ft 429 kts 45°
2026-04-26 15:18 -25.52613 29.11020 21723 ft 431 kts 45°
2026-04-26 15:19 -25.50559 29.13448 22108 ft 433 kts 45°
2026-04-26 15:19 -25.48493 29.15889 22443 ft 436 kts 45°
2026-04-26 15:19 -25.46414 29.18345 22771 ft 438 kts 45°
2026-04-26 15:19 -25.44350 29.20782 23103 ft 441 kts 45°
2026-04-26 15:20 -25.42252 29.23272 23426 ft 444 kts 45°
2026-04-26 15:20 -25.40147 29.25783 23734 ft 446 kts 46°
2026-04-26 15:20 -25.38038 29.28302 24011 ft 449 kts 46°
2026-04-26 15:20 -25.35907 29.30843 24254 ft 452 kts 46°
2026-04-26 15:21 -25.33757 29.33403 24499 ft 455 kts 45°
2026-04-26 15:21 -25.31600 29.35969 24747 ft 458 kts 45°
2026-04-26 15:21 -25.29424 29.38555 24986 ft 461 kts 45°
2026-04-26 15:21 -25.27233 29.41159 25224 ft 464 kts 45°
2026-04-26 15:22 -25.25057 29.43742 25459 ft 467 kts 45°
2026-04-26 15:22 -25.22838 29.46374 25705 ft 469 kts 45°
2026-04-26 15:22 -25.20605 29.49022 25948 ft 473 kts 45°
2026-04-26 15:22 -25.18357 29.51686 26197 ft 476 kts 45°
2026-04-26 15:23 -25.16094 29.54366 26455 ft 479 kts 45°
2026-04-26 15:23 -25.13815 29.57064 26695 ft 482 kts 45°
2026-04-26 15:23 -25.11521 29.59778 26959 ft 485 kts 45°
2026-04-26 15:23 -25.09213 29.62507 27211 ft 488 kts 45°
2026-04-26 15:24 -25.06921 29.65216 27477 ft 491 kts 45°
2026-04-26 15:24 -25.04580 29.67981 27737 ft 495 kts 45°
2026-04-26 15:24 -25.02222 29.70763 28008 ft 498 kts 45°
2026-04-26 15:24 -24.99849 29.73563 28273 ft 501 kts 45°
2026-04-26 15:25 -24.97458 29.76381 28566 ft 505 kts 45°
2026-04-26 15:25 -24.95870 29.78252 28747 ft 507 kts 45°
2026-04-26 15:25 -24.92628 29.82069 29137 ft 512 kts 45°
2026-04-26 15:25 -24.90186 29.84942 29393 ft 516 kts 45°
2026-04-26 15:26 -24.87731 29.87829 29682 ft 519 kts 45°
2026-04-26 15:26 -24.85285 29.90704 29972 ft 523 kts 45°
2026-04-26 15:26 -24.82789 29.93637 30277 ft 526 kts 45°
2026-04-26 15:26 -24.80287 29.96596 30556 ft 529 kts 45°
2026-04-26 15:27 -24.77780 29.99567 30921 ft 530 kts 45°
2026-04-26 15:27 -24.75269 30.02544 31263 ft 532 kts 45°
2026-04-26 15:27 -24.72744 30.05532 31581 ft 534 kts 45°
2026-04-26 15:27 -24.70206 30.08537 31892 ft 537 kts 46°
2026-04-26 15:28 -24.67661 30.11553 32186 ft 538 kts 45°
2026-04-26 15:28 -24.65148 30.14528 32501 ft 541 kts 46°
2026-04-26 15:28 -24.62584 30.17561 32807 ft 543 kts 46°
2026-04-26 15:28 -24.60008 30.20610 33066 ft 546 kts 46°
2026-04-26 15:29 -24.57434 30.23688 33375 ft 548 kts 46°
2026-04-26 15:29 -24.54861 30.26782 33762 ft 549 kts 46°
2026-04-26 15:29 -24.49683 30.33004 34300 ft 555 kts 46°
2026-04-26 15:30 -24.44505 30.39204 35013 ft 554 kts 46°
2026-04-26 15:30 -24.41896 30.42322 35144 ft 555 kts 46°
2026-04-26 15:30 -24.39287 30.45440 35142 ft 554 kts 46°
2026-04-26 15:31 -24.31457 30.54780 35118 ft 555 kts 46°
2026-04-26 15:32 -24.24500 30.63064 35104 ft 555 kts 46°
2026-04-26 15:32 -24.18420 30.70292 35093 ft 555 kts 46°
2026-04-26 15:33 -24.13177 30.76516 35086 ft 555 kts 46°
2026-04-26 15:33 -24.07941 30.82724 35087 ft 555 kts 46°
2026-04-26 15:34 -24.02733 30.88890 35086 ft 555 kts 46°
2026-04-26 15:34 -23.97497 30.95082 35078 ft 554 kts 46°
2026-04-26 15:35 -23.92264 31.01261 35078 ft 553 kts 47°
2026-04-26 15:35 -23.87037 31.07428 35067 ft 553 kts 47°
2026-04-26 15:36 -23.81818 31.13575 35056 ft 552 kts 46°
2026-04-26 15:36 -23.76632 31.19678 35055 ft 552 kts 46°
2026-04-26 15:37 -23.71414 31.25808 35052 ft 551 kts 47°
2026-04-26 15:37 -23.66189 31.31939 35042 ft 551 kts 47°
2026-04-26 15:38 -23.60969 31.38058 35045 ft 551 kts 47°
2026-04-26 15:38 -23.55783 31.44129 35040 ft 551 kts 47°
2026-04-26 15:39 -23.50560 31.50236 35042 ft 551 kts 47°
2026-04-26 15:39 -23.46208 31.55287 35034 ft 550 kts 45°
2026-04-26 15:40 -23.39358 31.61550 35034 ft 550 kts 38°
2026-04-26 15:40 -23.33400 31.66765 35030 ft 550 kts 38°
2026-04-26 15:41 -23.27478 31.71950 35033 ft 550 kts 38°
2026-04-26 15:41 -23.21516 31.77160 35028 ft 550 kts 38°
2026-04-26 15:42 -23.15555 31.82361 35027 ft 549 kts 38°
2026-04-26 15:42 -23.09633 31.87523 35019 ft 549 kts 38°
2026-04-26 15:43 -23.03673 31.92711 35018 ft 549 kts 38°
2026-04-26 15:44 -22.94745 32.00490 35017 ft 548 kts 39°
2026-04-26 15:44 -22.85983 32.08434 35015 ft 547 kts 40°
2026-04-26 15:45 -22.77247 32.16323 35014 ft 547 kts 40°
2026-04-26 15:46 -22.68463 32.24222 35011 ft 547 kts 40°
2026-04-26 15:46 -22.63600 32.28590 35000 ft 547 kts 40°
2026-04-26 15:47 -22.53876 32.37310 35014 ft 546 kts 40°
2026-04-26 15:48 -22.48024 32.42550 35006 ft 546 kts 40°
2026-04-26 15:48 -22.42170 32.47787 35007 ft 546 kts 40°
2026-04-26 15:49 -22.36353 32.52984 35008 ft 546 kts 40°
2026-04-26 15:49 -22.30494 32.58213 35011 ft 546 kts 40°
2026-04-26 15:50 -22.24633 32.63437 35008 ft 546 kts 40°
2026-04-26 15:50 -22.18780 32.68649 35013 ft 546 kts 40°
2026-04-26 15:51 -22.12959 32.73828 35024 ft 546 kts 40°
2026-04-26 15:51 -22.07101 32.79033 35011 ft 546 kts 40°
2026-04-26 15:52 -22.01253 32.84251 35011 ft 545 kts 41°
2026-04-26 15:52 -21.95457 32.89531 35013 ft 545 kts 41°
2026-04-26 15:53 -21.89698 32.94767 35023 ft 545 kts 41°
2026-04-26 15:53 -21.83898 33.00022 35026 ft 544 kts 41°
2026-04-26 15:54 -21.78106 33.05262 35027 ft 544 kts 41°
2026-04-26 15:54 -21.72283 33.10468 35007 ft 544 kts 40°
2026-04-26 15:55 -21.66479 33.15610 35005 ft 544 kts 40°
2026-04-26 15:55 -21.60640 33.20787 35009 ft 544 kts 41°
2026-04-26 15:56 -21.54801 33.25963 35007 ft 544 kts 41°
2026-04-26 15:56 -21.48964 33.31133 35029 ft 544 kts 41°
2026-04-26 15:57 -21.43157 33.36271 35027 ft 545 kts 40°
2026-04-26 15:57 -21.37305 33.41443 35010 ft 545 kts 40°
2026-04-26 15:58 -21.31450 33.46611 35011 ft 545 kts 40°
2026-04-26 15:58 -21.25593 33.51776 35003 ft 545 kts 40°
2026-04-26 15:59 -21.19783 33.56894 35028 ft 544 kts 40°
2026-04-26 15:59 -21.13942 33.62034 35022 ft 543 kts 40°
2026-04-26 16:00 -21.08114 33.67158 35021 ft 542 kts 40°
2026-04-26 16:00 -21.02285 33.72276 35004 ft 542 kts 41°
2026-04-26 16:01 -20.96499 33.77352 35005 ft 541 kts 41°
2026-04-26 16:01 -20.90676 33.82455 34997 ft 541 kts 41°
2026-04-26 16:02 -20.84863 33.87544 35014 ft 540 kts 41°
2026-04-26 16:02 -20.79041 33.92635 35000 ft 540 kts 41°
2026-04-26 16:03 -20.73264 33.97682 35018 ft 540 kts 41°
2026-04-26 16:03 -20.67523 34.02829 35018 ft 539 kts 44°
2026-04-26 16:04 -20.61980 34.08208 35021 ft 538 kts 44°
2026-04-26 16:04 -20.56419 34.13565 35014 ft 538 kts 44°
2026-04-26 16:05 -20.50837 34.18891 35016 ft 538 kts 43°
2026-04-26 16:05 -20.45252 34.24204 35010 ft 538 kts 43°
2026-04-26 16:06 -20.39708 34.29474 35011 ft 537 kts 43°
2026-04-26 16:06 -20.34134 34.34766 34990 ft 537 kts 43°
2026-04-26 16:07 -20.28557 34.40057 34992 ft 537 kts 43°
2026-04-26 16:07 -20.22978 34.45343 35009 ft 537 kts 43°
2026-04-26 16:08 -20.17446 34.50581 35016 ft 536 kts 43°
2026-04-26 16:08 -20.11876 34.55849 35012 ft 535 kts 43°
2026-04-26 16:09 -20.06310 34.61108 35002 ft 535 kts 43°
2026-04-26 16:09 -20.00747 34.66359 35004 ft 534 kts 43°
2026-04-26 16:10 -19.95222 34.71569 35010 ft 534 kts 43°
2026-04-26 16:10 -19.89660 34.76810 35004 ft 534 kts 43°
2026-04-26 16:11 -19.84102 34.82040 35012 ft 534 kts 43°
2026-04-26 16:11 -19.78139 34.86731 35006 ft 535 kts 30°
2026-04-26 16:12 -19.71273 34.89779 35006 ft 536 kts 18°
2026-04-26 16:12 -19.60720 34.93525 35004 ft 536 kts 19°
2026-04-26 16:13 -19.53650 34.96049 35006 ft 536 kts 19°
2026-04-26 16:13 -19.46579 34.98568 35013 ft 536 kts 19°
2026-04-26 16:14 -19.39549 35.01069 35008 ft 537 kts 19°
2026-04-26 16:15 -19.28924 35.04845 35013 ft 537 kts 19°
2026-04-26 16:15 -19.21845 35.07357 35015 ft 537 kts 19°
2026-04-26 16:16 -19.11256 35.11111 35021 ft 537 kts 19°
2026-04-26 16:16 -19.04166 35.13622 35020 ft 537 kts 19°
2026-04-26 16:17 -18.97076 35.16131 35017 ft 537 kts 19°
2026-04-26 16:17 -18.89996 35.18633 35019 ft 537 kts 19°
2026-04-26 16:18 -18.86443 35.19888 35221 ft 539 kts 19°
2026-04-26 16:18 -18.79407 35.22372 36144 ft 535 kts 19°
2026-04-26 16:19 -18.72369 35.24855 36946 ft 533 kts 19°
2026-04-26 16:19 -18.68842 35.26098 37024 ft 532 kts 19°
2026-04-26 16:20 -18.58379 35.29783 37006 ft 529 kts 19°
2026-04-26 16:20 -18.47945 35.33460 37005 ft 529 kts 19°
2026-04-26 16:21 -18.40965 35.35919 37015 ft 530 kts 19°
2026-04-26 16:21 -18.33983 35.38375 37001 ft 528 kts 19°
2026-04-26 16:22 -18.27066 35.40806 36991 ft 527 kts 19°
2026-04-26 16:22 -18.20115 35.43247 36985 ft 526 kts 19°
2026-04-26 16:23 -18.13168 35.45685 36985 ft 526 kts 19°
2026-04-26 16:23 -18.06223 35.48120 36986 ft 527 kts 19°
2026-04-26 16:24 -17.99310 35.50542 36990 ft 528 kts 19°
2026-04-26 16:24 -17.92329 35.52985 36989 ft 529 kts 19°
2026-04-26 16:25 -17.85328 35.55433 37015 ft 531 kts 19°
2026-04-26 16:25 -17.78313 35.57885 37032 ft 532 kts 19°
2026-04-26 16:26 -17.72461 35.59928 37025 ft 533 kts 19°
2026-04-26 16:26 -17.64274 35.62784 37040 ft 534 kts 19°
2026-04-26 16:27 -17.57224 35.65242 37044 ft 534 kts 19°
2026-04-26 16:27 -17.50174 35.67697 37050 ft 534 kts 19°
2026-04-26 16:28 -17.43130 35.70145 37053 ft 533 kts 19°
2026-04-26 16:28 -17.36143 35.72571 37049 ft 532 kts 19°
2026-04-26 16:29 -17.29125 35.75007 37051 ft 531 kts 19°
2026-04-26 16:29 -17.22110 35.77440 37028 ft 531 kts 19°
2026-04-26 16:30 -17.15093 35.79872 37036 ft 531 kts 19°
2026-04-26 16:30 -17.08121 35.82285 37047 ft 531 kts 19°
2026-04-26 16:31 -17.01103 35.84713 37051 ft 531 kts 19°
2026-04-26 16:31 -16.94084 35.87139 37050 ft 531 kts 19°
2026-04-26 16:32 -16.88256 35.89153 37053 ft 531 kts 19°
2026-04-26 16:32 -16.80055 35.91983 37061 ft 531 kts 19°
2026-04-26 16:33 -16.73093 35.94384 37063 ft 530 kts 19°
2026-04-26 16:33 -16.66085 35.96800 37063 ft 530 kts 19°
2026-04-26 16:34 -16.59080 35.99212 37063 ft 530 kts 19°
2026-04-26 16:34 -16.52118 36.01607 37064 ft 530 kts 19°
2026-04-26 16:35 -16.45129 36.04010 37082 ft 529 kts 19°
2026-04-26 16:35 -16.38139 36.06412 37071 ft 529 kts 19°
2026-04-26 16:36 -16.31153 36.08810 37076 ft 528 kts 19°
2026-04-26 16:36 -16.24217 36.11189 37079 ft 528 kts 19°
2026-04-26 16:37 -16.17246 36.13579 37089 ft 528 kts 19°
2026-04-26 16:37 -16.11447 36.15565 37087 ft 527 kts 19°
2026-04-26 16:38 -16.03301 36.18354 37093 ft 527 kts 19°
2026-04-26 16:38 -15.96377 36.20719 37094 ft 527 kts 19°
2026-04-26 16:39 -15.89392 36.23056 37095 ft 527 kts 19°
2026-04-26 16:39 -15.82420 36.25383 37101 ft 527 kts 19°
2026-04-26 16:40 -15.75451 36.27712 37098 ft 526 kts 19°
2026-04-26 16:40 -15.68491 36.30039 37094 ft 525 kts 19°
2026-04-26 16:41 -15.61582 36.32347 37095 ft 525 kts 19°
2026-04-26 16:41 -15.54642 36.34664 37099 ft 524 kts 19°
2026-04-26 16:42 -15.47700 36.36980 37090 ft 523 kts 19°
2026-04-26 16:42 -15.40767 36.39291 37088 ft 523 kts 19°
2026-04-26 16:43 -15.33890 36.41581 37079 ft 523 kts 19°
2026-04-26 16:43 -15.26963 36.43888 37077 ft 523 kts 19°
2026-04-26 16:44 -15.20036 36.46192 37064 ft 523 kts 19°
2026-04-26 16:44 -15.13108 36.48495 37065 ft 523 kts 19°
2026-04-26 16:45 -15.06224 36.50781 37072 ft 523 kts 19°
2026-04-26 16:45 -14.99307 36.53078 37063 ft 522 kts 19°
2026-04-26 16:46 -14.92395 36.55371 37080 ft 521 kts 19°
2026-04-26 16:46 -14.85498 36.57657 37063 ft 520 kts 19°
2026-04-26 16:47 -14.78614 36.59938 37054 ft 519 kts 19°
2026-04-26 16:47 -14.71795 36.62195 37040 ft 518 kts 19°
2026-04-26 16:48 -14.64935 36.64465 37058 ft 517 kts 18°
2026-04-26 16:48 -14.58097 36.66726 37040 ft 515 kts 18°
2026-04-26 16:49 -14.51270 36.68982 37032 ft 515 kts 18°
2026-04-26 16:49 -14.44497 36.71218 37019 ft 514 kts 18°
2026-04-26 16:50 -14.37684 36.73466 37014 ft 514 kts 18°
2026-04-26 16:50 -14.30878 36.75712 37025 ft 513 kts 18°
2026-04-26 16:51 -14.24087 36.77949 37023 ft 513 kts 18°
2026-04-26 16:51 -14.17339 36.80172 37020 ft 512 kts 18°
2026-04-26 16:52 -14.12799 36.81666 37015 ft 512 kts 18°
2026-04-26 16:52 -14.03764 36.84639 37026 ft 511 kts 18°
2026-04-26 16:53 -13.97041 36.86869 37022 ft 511 kts 18°
2026-04-26 16:53 -13.90297 36.89135 37016 ft 510 kts 18°
2026-04-26 16:54 -13.83548 36.91397 37022 ft 510 kts 18°
2026-04-26 16:54 -13.76804 36.93653 37023 ft 510 kts 18°
2026-04-26 16:55 -13.70113 36.95890 37034 ft 509 kts 18°
2026-04-26 16:55 -13.63394 36.98134 37033 ft 508 kts 18°
2026-04-26 16:56 -13.53323 37.01496 37037 ft 506 kts 18°
2026-04-26 16:57 -13.46668 37.03716 37028 ft 506 kts 18°
2026-04-26 16:57 -13.36645 37.07056 37029 ft 504 kts 17°
2026-04-26 16:58 -13.32189 37.08541 37024 ft 503 kts 17°
2026-04-26 16:59 -13.20050 37.12581 37008 ft 502 kts 17°
2026-04-26 17:00 -13.06764 37.16999 37013 ft 501 kts 17°
2026-04-26 17:00 -12.97935 37.19931 36996 ft 501 kts 17°
2026-04-26 17:01 -12.90235 37.22487 36987 ft 500 kts 17°
2026-04-26 17:01 -12.83618 37.24683 36999 ft 500 kts 17°
2026-04-26 17:02 -12.78123 37.26530 36998 ft 500 kts 17°
2026-04-26 17:02 -12.71537 37.28806 36993 ft 499 kts 17°
2026-04-26 17:03 -12.63890 37.31440 36985 ft 499 kts 17°
2026-04-26 17:03 -12.58377 37.33333 36982 ft 498 kts 17°
2026-04-26 17:04 -12.51853 37.35571 36992 ft 498 kts 17°
2026-04-26 17:04 -12.45287 37.37822 36987 ft 497 kts 17°
2026-04-26 17:05 -12.37664 37.40432 36987 ft 497 kts 17°
2026-04-26 17:05 -12.32213 37.42299 36983 ft 497 kts 17°
2026-04-26 17:06 -12.25668 37.44539 36982 ft 496 kts 17°
2026-04-26 17:06 -12.19116 37.46780 36982 ft 496 kts 17°
2026-04-26 17:07 -12.12563 37.49021 36987 ft 497 kts 17°
2026-04-26 17:07 -12.06052 37.51246 36989 ft 497 kts 17°
2026-04-26 17:08 -11.99495 37.53485 36986 ft 497 kts 17°
2026-04-26 17:08 -11.91876 37.56086 36998 ft 496 kts 17°
2026-04-26 17:09 -11.87497 37.57580 36998 ft 496 kts 17°
2026-04-26 17:09 -11.79894 37.60173 36993 ft 495 kts 17°
2026-04-26 17:10 -11.73360 37.62400 36988 ft 495 kts 17°
2026-04-26 17:10 -11.66831 37.64624 36982 ft 494 kts 17°
2026-04-26 17:11 -11.60310 37.66829 36989 ft 494 kts 16°
2026-04-26 17:11 -11.53813 37.68947 36985 ft 493 kts 16°
2026-04-26 17:12 -11.44015 37.72147 36979 ft 493 kts 16°
2026-04-26 17:13 -11.34229 37.75353 36978 ft 492 kts 16°
2026-04-26 17:14 -11.24506 37.78536 36986 ft 491 kts 16°
2026-04-26 17:14 -11.14745 37.81729 36983 ft 491 kts 16°
2026-04-26 17:15 -11.05032 37.84904 36986 ft 491 kts 16°
2026-04-26 17:16 -10.98530 37.87028 36997 ft 490 kts 16°
2026-04-26 17:16 -10.92035 37.89149 36995 ft 490 kts 16°
2026-04-26 17:17 -10.85551 37.91265 36991 ft 490 kts 16°
2026-04-26 17:17 -10.79107 37.93367 36994 ft 489 kts 16°
2026-04-26 17:18 -10.72622 37.95482 36994 ft 489 kts 16°
2026-04-26 17:18 -10.66144 37.97594 37009 ft 488 kts 15°
2026-04-26 17:19 -10.56446 38.00752 37001 ft 487 kts 15°
2026-04-26 17:19 -10.50040 38.02838 36997 ft 487 kts 15°
2026-04-26 17:20 -10.44677 38.04583 36994 ft 486 kts 15°
2026-04-26 17:20 -10.37150 38.07032 37012 ft 485 kts 15°
2026-04-26 17:21 -10.30725 38.09121 37007 ft 484 kts 15°
2026-04-26 17:21 -10.24361 38.11189 36994 ft 483 kts 15°
2026-04-26 17:22 -10.17959 38.13269 36989 ft 483 kts 15°
2026-04-26 17:22 -10.11562 38.15346 36986 ft 482 kts 15°
2026-04-26 17:23 -10.05172 38.17420 36994 ft 482 kts 15°
2026-04-26 17:23 -9.98794 38.19490 36987 ft 482 kts 15°
2026-04-26 17:24 -9.92453 38.21546 36988 ft 482 kts 15°
2026-04-26 17:24 -9.86069 38.23616 36989 ft 482 kts 15°
2026-04-26 17:25 -9.79684 38.25685 36981 ft 482 kts 15°
2026-04-26 17:25 -9.73297 38.27753 36987 ft 482 kts 16°
2026-04-26 17:26 -9.66949 38.29809 36990 ft 482 kts 16°
2026-04-26 17:26 -9.60563 38.31877 36994 ft 482 kts 16°
2026-04-26 17:27 -9.54167 38.33946 36995 ft 482 kts 16°
2026-04-26 17:27 -9.47768 38.36015 36996 ft 483 kts 16°
2026-04-26 17:28 -9.41409 38.38071 36996 ft 483 kts 16°
2026-04-26 17:28 -9.35015 38.40138 36991 ft 483 kts 16°
2026-04-26 17:29 -9.29692 38.41858 36993 ft 483 kts 16°
2026-04-26 17:29 -9.22214 38.44273 36992 ft 483 kts 16°
2026-04-26 17:30 -9.15858 38.46324 36994 ft 482 kts 16°
2026-04-26 17:30 -9.09461 38.48389 36993 ft 482 kts 16°
2026-04-26 17:31 -9.03065 38.50452 36989 ft 482 kts 16°
2026-04-26 17:31 -8.96668 38.52514 36990 ft 482 kts 16°
2026-04-26 17:32 -8.90271 38.54576 36989 ft 482 kts 16°
2026-04-26 17:32 -8.83922 38.56621 36987 ft 483 kts 17°
2026-04-26 17:33 -8.77521 38.58683 36990 ft 483 kts 17°
2026-04-26 17:34 -8.67914 38.61776 36992 ft 483 kts 17°
2026-04-26 17:34 -8.61550 38.63824 36993 ft 483 kts 17°
2026-04-26 17:35 -8.55150 38.65883 36989 ft 483 kts 17°
2026-04-26 17:35 -8.48742 38.67944 36996 ft 483 kts 17°
2026-04-26 17:36 -8.42337 38.70005 36996 ft 483 kts 17°
2026-04-26 17:36 -8.35931 38.72069 36995 ft 483 kts 17°
2026-04-26 17:37 -8.29568 38.74118 36997 ft 483 kts 17°
2026-04-26 17:37 -8.23162 38.76179 36999 ft 483 kts 17°
2026-04-26 17:38 -8.13557 38.79269 36992 ft 483 kts 17°
2026-04-26 17:38 -8.07198 38.81314 36991 ft 483 kts 17°
2026-04-26 17:39 -8.00804 38.83369 36990 ft 483 kts 17°
2026-04-26 17:39 -7.94405 38.85426 36984 ft 483 kts 17°
2026-04-26 17:40 -7.89081 38.87136 36982 ft 483 kts 17°
2026-04-26 17:40 -7.81596 38.89540 36986 ft 483 kts 17°
2026-04-26 17:41 -7.75224 38.91585 36984 ft 484 kts 17°
2026-04-26 17:41 -7.68804 38.93646 36988 ft 484 kts 17°
2026-04-26 17:42 -7.62376 38.95708 36989 ft 485 kts 17°
2026-04-26 17:42 -7.55947 38.97770 36993 ft 485 kts 17°
2026-04-26 17:43 -7.49550 38.99821 36995 ft 486 kts 17°
2026-04-26 17:43 -7.43108 39.01886 36999 ft 486 kts 17°
2026-04-26 17:44 -7.36663 39.03951 36999 ft 486 kts 18°
2026-04-26 17:44 -7.30232 39.06011 37001 ft 486 kts 18°
2026-04-26 17:45 -7.23837 39.08059 36999 ft 485 kts 18°
2026-04-26 17:45 -7.17402 39.10119 36997 ft 485 kts 18°
2026-04-26 17:46 -7.10970 39.12178 36996 ft 485 kts 18°
2026-04-26 17:46 -7.04540 39.14235 36990 ft 485 kts 18°
2026-04-26 17:47 -6.99199 39.15943 36990 ft 485 kts 18°
2026-04-26 17:47 -6.91737 39.18366 36989 ft 485 kts 21°
2026-04-26 17:48 -6.85702 39.21378 36991 ft 485 kts 32°
2026-04-26 17:48 -6.80122 39.25200 36985 ft 485 kts 34°
2026-04-26 17:49 -6.74567 39.28984 36986 ft 485 kts 34°
2026-04-26 17:49 -6.68971 39.32796 36983 ft 486 kts 34°
2026-04-26 17:50 -6.63381 39.36607 36986 ft 486 kts 34°
2026-04-26 17:50 -6.57778 39.40427 36978 ft 486 kts 34°
2026-04-26 17:51 -6.52187 39.44236 36980 ft 486 kts 34°
2026-04-26 17:51 -6.46629 39.48023 36979 ft 486 kts 34°
2026-04-26 17:52 -6.41034 39.51834 36971 ft 486 kts 34°
2026-04-26 17:52 -6.35437 39.55645 36971 ft 486 kts 34°
2026-04-26 17:53 -6.29883 39.59426 36977 ft 486 kts 34°
2026-04-26 17:54 -6.21483 39.65117 36976 ft 485 kts 33°
2026-04-26 17:54 -6.15864 39.68874 36978 ft 485 kts 33°
2026-04-26 17:55 -6.10250 39.72633 36976 ft 485 kts 33°
2026-04-26 17:55 -6.04677 39.76368 36978 ft 485 kts 33°
2026-04-26 17:56 -5.99068 39.80126 36975 ft 484 kts 33°
2026-04-26 17:57 -5.87869 39.87627 36977 ft 483 kts 33°
2026-04-26 17:57 -5.82311 39.91349 36969 ft 483 kts 33°
2026-04-26 17:58 -5.71118 39.98840 36971 ft 483 kts 33°
2026-04-26 17:59 -5.62761 40.04432 36973 ft 484 kts 33°
2026-04-26 17:59 -5.57156 40.08180 36976 ft 484 kts 33°
2026-04-26 18:00 -5.51549 40.11930 36985 ft 484 kts 33°
2026-04-26 18:00 -5.45938 40.15681 36980 ft 485 kts 33°
2026-04-26 18:01 -5.40359 40.19410 36972 ft 485 kts 33°
2026-04-26 18:01 -5.34742 40.23163 36970 ft 486 kts 33°
2026-04-26 18:02 -5.30064 40.26288 36966 ft 486 kts 33°
2026-04-26 18:02 -5.23479 40.30686 36969 ft 487 kts 33°
2026-04-26 18:03 -5.17876 40.34428 36970 ft 487 kts 33°
2026-04-26 18:03 -5.12233 40.38203 36974 ft 487 kts 34°
2026-04-26 18:04 -5.06870 40.42374 36970 ft 488 kts 38°
2026-04-26 18:05 -4.98858 40.48681 36982 ft 488 kts 38°
2026-04-26 18:05 -4.93515 40.52882 36986 ft 487 kts 38°
2026-04-26 18:06 -4.88217 40.57048 36985 ft 487 kts 38°
2026-04-26 18:06 -4.82890 40.61227 36960 ft 486 kts 36°
2026-04-26 18:07 -4.77209 40.64853 36956 ft 484 kts 31°
2026-04-26 18:07 -4.71488 40.68341 36957 ft 484 kts 31°
2026-04-26 18:08 -4.65748 40.71850 36961 ft 483 kts 31°
2026-04-26 18:08 -4.60003 40.75358 36979 ft 483 kts 31°
2026-04-26 18:09 -4.54262 40.78863 36971 ft 483 kts 31°
2026-04-26 18:09 -4.48521 40.82366 36960 ft 483 kts 31°
2026-04-26 18:10 -4.42818 40.85846 36954 ft 483 kts 31°
2026-04-26 18:10 -4.37082 40.89344 36949 ft 483 kts 31°
2026-04-26 18:11 -4.31333 40.92852 36950 ft 483 kts 31°
2026-04-26 18:11 -4.25599 40.96348 36966 ft 483 kts 31°
2026-04-26 18:12 -4.19899 40.99823 36974 ft 482 kts 31°
2026-04-26 18:12 -4.14162 41.03320 36976 ft 482 kts 31°
2026-04-26 18:13 -4.08426 41.06816 36971 ft 482 kts 31°
2026-04-26 18:13 -4.02691 41.10310 36960 ft 483 kts 31°
2026-04-26 18:14 -3.97122 41.13972 36957 ft 482 kts 36°
2026-04-26 18:14 -3.91741 41.17978 36944 ft 483 kts 36°
2026-04-26 18:15 -3.86341 41.21974 36958 ft 483 kts 36°
2026-04-26 18:15 -3.80938 41.25970 36969 ft 483 kts 36°
2026-04-26 18:16 -3.75571 41.29941 36966 ft 483 kts 36°
2026-04-26 18:16 -3.67463 41.35939 36954 ft 483 kts 36°
2026-04-26 18:17 -3.62062 41.39934 36963 ft 483 kts 36°
2026-04-26 18:17 -3.56652 41.43935 36975 ft 483 kts 36°
2026-04-26 18:18 -3.51278 41.47908 36967 ft 483 kts 36°
2026-04-26 18:18 -3.45867 41.51909 36958 ft 484 kts 36°
2026-04-26 18:19 -3.40454 41.55910 36945 ft 484 kts 36°
2026-04-26 18:19 -3.35073 41.59886 36936 ft 485 kts 36°
2026-04-26 18:20 -3.29651 41.63893 36945 ft 485 kts 36°
2026-04-26 18:20 -3.25132 41.67233 36948 ft 486 kts 36°
2026-04-26 18:21 -3.18775 41.71929 36968 ft 486 kts 36°
2026-04-26 18:21 -3.13329 41.75952 36964 ft 486 kts 36°
2026-04-26 18:22 -3.07916 41.79949 36951 ft 487 kts 37°
2026-04-26 18:22 -3.02464 41.83976 36944 ft 487 kts 37°
2026-04-26 18:23 -2.97016 41.87999 36945 ft 487 kts 37°
2026-04-26 18:23 -2.91561 41.92026 36953 ft 487 kts 37°
2026-04-26 18:24 -2.86144 41.96025 36958 ft 487 kts 37°
2026-04-26 18:24 -2.80687 42.00054 36938 ft 488 kts 36°
2026-04-26 18:25 -2.75222 42.04087 36943 ft 488 kts 36°
2026-04-26 18:25 -2.69754 42.08122 36943 ft 489 kts 36°
2026-04-26 18:26 -2.64308 42.12140 36944 ft 490 kts 36°
2026-04-26 18:26 -2.58820 42.16189 36948 ft 491 kts 36°
2026-04-26 18:27 -2.53327 42.20242 36960 ft 491 kts 36°
2026-04-26 18:27 -2.47835 42.24292 36962 ft 490 kts 36°
2026-04-26 18:28 -2.42384 42.28312 36955 ft 490 kts 36°
2026-04-26 18:28 -2.36907 42.32351 36953 ft 489 kts 36°
2026-04-26 18:29 -2.31430 42.36390 36949 ft 489 kts 36°
2026-04-26 18:29 -2.25957 42.40425 36946 ft 489 kts 36°
2026-04-26 18:30 -2.20492 42.44447 36960 ft 487 kts 35°
2026-04-26 18:30 -2.14963 42.48279 36950 ft 486 kts 34°
2026-04-26 18:31 -2.09389 42.52104 36942 ft 486 kts 34°
2026-04-26 18:31 -2.03833 42.55946 36939 ft 485 kts 34°
2026-04-26 18:32 -1.98286 42.59783 36938 ft 485 kts 34°
2026-04-26 18:32 -1.92729 42.63542 36930 ft 486 kts 33°
2026-04-26 18:33 -1.87124 42.67327 36935 ft 486 kts 34°
2026-04-26 18:33 -1.81517 42.71124 36942 ft 487 kts 34°
2026-04-26 18:34 -1.75904 42.74927 36945 ft 488 kts 34°
2026-04-26 18:34 -1.70325 42.78706 36948 ft 488 kts 34°
2026-04-26 18:35 -1.64704 42.82514 36949 ft 488 kts 34°
2026-04-26 18:35 -1.59081 42.86322 36949 ft 488 kts 34°
2026-04-26 18:36 -1.53459 42.90130 36945 ft 488 kts 34°
2026-04-26 18:36 -1.47882 42.93907 36945 ft 488 kts 34°
2026-04-26 18:37 -1.42263 42.97712 36943 ft 488 kts 34°
2026-04-26 18:37 -1.36648 43.01514 36949 ft 487 kts 34°
2026-04-26 18:38 -1.31040 43.05312 36948 ft 486 kts 34°
2026-04-26 18:38 -1.25485 43.09073 36941 ft 486 kts 34°
2026-04-26 18:39 -1.19895 43.12858 36938 ft 485 kts 34°
2026-04-26 18:39 -1.14311 43.16638 36934 ft 485 kts 34°
2026-04-26 18:40 -1.08731 43.20415 36938 ft 484 kts 34°
2026-04-26 18:40 -1.03193 43.24164 36933 ft 484 kts 34°
2026-04-26 18:41 -0.97625 43.27934 36932 ft 484 kts 34°
2026-04-26 18:41 -0.92048 43.31708 36934 ft 484 kts 34°
2026-04-26 18:42 -0.86470 43.35484 36935 ft 484 kts 34°
2026-04-26 18:42 -0.80925 43.39237 36937 ft 485 kts 34°
2026-04-26 18:43 -0.75340 43.43017 36938 ft 485 kts 34°
2026-04-26 18:43 -0.69756 43.46797 36935 ft 486 kts 34°
2026-04-26 18:44 -0.64159 43.50585 36936 ft 486 kts 34°
2026-04-26 18:44 -0.58595 43.54350 36941 ft 486 kts 34°
2026-04-26 18:45 -0.52992 43.58142 36944 ft 486 kts 34°
2026-04-26 18:45 -0.47388 43.61934 36944 ft 486 kts 34°
2026-04-26 18:46 -0.41786 43.65725 36946 ft 486 kts 34°
2026-04-26 18:46 -0.36232 43.69484 36943 ft 486 kts 34°
2026-04-26 18:47 -0.30638 43.73269 36941 ft 485 kts 34°
2026-04-26 18:47 -0.25048 43.77052 36938 ft 485 kts 34°
2026-04-26 18:48 -0.19461 43.80832 36937 ft 485 kts 34°
2026-04-26 18:48 -0.13917 43.84584 36942 ft 484 kts 34°
2026-04-26 18:49 -0.08337 43.88359 36939 ft 484 kts 34°
2026-04-26 18:49 -0.02761 43.92133 36937 ft 484 kts 34°
2026-04-26 18:50 0.02777 43.95879 36934 ft 484 kts 34°
2026-04-26 18:50 0.08345 43.99647 36935 ft 484 kts 34°
2026-04-26 18:51 0.13919 44.03420 36936 ft 484 kts 34°
2026-04-26 18:51 0.19488 44.07188 36945 ft 483 kts 34°
2026-04-26 18:52 0.24108 44.10314 36941 ft 483 kts 34°
2026-04-26 18:52 0.30565 44.14684 36936 ft 482 kts 34°
2026-04-26 18:53 0.36123 44.18439 36935 ft 482 kts 34°
2026-04-26 18:53 0.41687 44.22183 36934 ft 482 kts 34°
2026-04-26 18:54 0.47211 44.25903 36939 ft 482 kts 34°
2026-04-26 18:54 0.52769 44.29646 36938 ft 482 kts 34°
2026-04-26 18:55 0.58320 44.33385 36929 ft 482 kts 34°
2026-04-26 18:55 0.63882 44.37132 36932 ft 482 kts 34°
2026-04-26 18:56 0.69412 44.40857 36935 ft 483 kts 34°
2026-04-26 18:56 0.74981 44.44609 36942 ft 483 kts 34°
2026-04-26 18:57 0.79606 44.47725 36940 ft 483 kts 34°
2026-04-26 18:57 0.86120 44.52113 36943 ft 483 kts 34°
2026-04-26 18:58 0.91649 44.55838 36941 ft 482 kts 34°
2026-04-26 18:58 0.97206 44.59582 36939 ft 482 kts 34°
2026-04-26 18:59 1.02764 44.63327 36948 ft 481 kts 34°
2026-04-26 18:59 1.08311 44.67065 36941 ft 480 kts 34°
2026-04-26 19:00 1.13812 44.70772 36943 ft 480 kts 34°
2026-04-26 19:00 1.19341 44.74497 36937 ft 479 kts 34°
2026-04-26 19:01 1.24858 44.78215 36929 ft 479 kts 34°
2026-04-26 19:01 1.30378 44.81936 36928 ft 478 kts 34°
2026-04-26 19:02 1.35862 44.85632 36929 ft 478 kts 34°
2026-04-26 19:02 1.40452 44.88726 36933 ft 479 kts 34°
2026-04-26 19:03 1.46905 44.93075 36935 ft 479 kts 34°
2026-04-26 19:03 1.52386 44.96770 36936 ft 479 kts 34°
2026-04-26 19:04 1.57911 45.00495 36933 ft 479 kts 34°
2026-04-26 19:04 1.63435 45.04219 36945 ft 479 kts 34°
2026-04-26 19:05 1.71707 45.09796 36942 ft 478 kts 34°
2026-04-26 19:06 1.77179 45.13486 36938 ft 477 kts 34°
2026-04-26 19:06 1.82683 45.17197 36932 ft 477 kts 34°
2026-04-26 19:07 1.88181 45.20905 36944 ft 476 kts 34°
2026-04-26 19:07 1.93670 45.24607 36930 ft 476 kts 34°
2026-04-26 19:08 1.99117 45.28282 36929 ft 476 kts 34°
2026-04-26 19:08 2.04741 45.31764 36925 ft 475 kts 31°
2026-04-26 19:09 2.10420 45.35158 36928 ft 476 kts 31°
2026-04-26 19:09 2.16101 45.38560 36932 ft 476 kts 31°
2026-04-26 19:10 2.21741 45.41935 36942 ft 476 kts 31°
2026-04-26 19:10 2.27424 45.45335 36940 ft 476 kts 31°
2026-04-26 19:11 2.33105 45.48735 36938 ft 476 kts 31°
2026-04-26 19:11 2.38746 45.52111 36938 ft 475 kts 31°
2026-04-26 19:12 2.44422 45.55508 36937 ft 475 kts 31°
2026-04-26 19:12 2.50085 45.58898 36946 ft 474 kts 31°
2026-04-26 19:13 2.55742 45.62285 36940 ft 473 kts 31°
2026-04-26 19:13 2.61356 45.65646 36935 ft 473 kts 31°
2026-04-26 19:14 2.66990 45.69020 36933 ft 472 kts 31°
2026-04-26 19:14 2.72626 45.72394 36933 ft 472 kts 31°
2026-04-26 19:15 2.78259 45.75767 36926 ft 472 kts 31°
2026-04-26 19:15 2.83854 45.79119 36917 ft 472 kts 32°
2026-04-26 19:16 2.89495 45.82499 36927 ft 473 kts 32°
2026-04-26 19:16 2.95140 45.85881 36931 ft 474 kts 32°
2026-04-26 19:17 3.00800 45.89273 36938 ft 474 kts 32°
2026-04-26 19:17 3.06430 45.92647 36942 ft 475 kts 32°
2026-04-26 19:18 3.12104 45.96047 36945 ft 475 kts 32°
2026-04-26 19:18 3.17781 45.99450 36940 ft 476 kts 32°
2026-04-26 19:19 3.23464 46.02856 36942 ft 476 kts 32°
2026-04-26 19:19 3.29104 46.06238 36943 ft 476 kts 32°
2026-04-26 19:20 3.34784 46.09644 36953 ft 475 kts 32°
2026-04-26 19:20 3.40453 46.13044 36946 ft 475 kts 32°
2026-04-26 19:21 3.46108 46.16436 36940 ft 474 kts 32°
2026-04-26 19:21 3.51721 46.19803 36933 ft 473 kts 32°
2026-04-26 19:22 3.57369 46.23192 36931 ft 473 kts 32°
2026-04-26 19:22 3.63014 46.26580 36938 ft 473 kts 32°
2026-04-26 19:23 3.68654 46.29965 36935 ft 472 kts 32°
2026-04-26 19:23 3.74255 46.33326 36932 ft 472 kts 32°
2026-04-26 19:24 3.79893 46.36711 36933 ft 472 kts 32°
2026-04-26 19:24 3.88344 46.41786 36933 ft 473 kts 32°
2026-04-26 19:25 3.93034 46.44603 36931 ft 473 kts 32°
2026-04-26 19:25 3.99591 46.48540 36933 ft 473 kts 32°
2026-04-26 19:26 4.05236 46.51932 36934 ft 473 kts 32°
2026-04-26 19:26 4.10876 46.55321 36932 ft 473 kts 32°
2026-04-26 19:27 4.16485 46.58692 36925 ft 473 kts 31°
2026-04-26 19:27 4.22136 46.62089 36925 ft 474 kts 31°
2026-04-26 19:28 4.27799 46.65493 36928 ft 475 kts 31°
2026-04-26 19:28 4.33469 46.68902 36933 ft 475 kts 31°
2026-04-26 19:29 4.39105 46.72291 36936 ft 476 kts 31°
2026-04-26 19:29 4.44782 46.75706 36936 ft 476 kts 31°
2026-04-26 19:30 4.50459 46.79121 36937 ft 476 kts 31°
2026-04-26 19:30 4.55173 46.81958 36937 ft 476 kts 31°
2026-04-26 19:31 4.61769 46.85927 36932 ft 476 kts 31°
2026-04-26 19:31 4.67446 46.89344 36931 ft 476 kts 31°
2026-04-26 19:32 4.73122 46.92762 36930 ft 476 kts 31°
2026-04-26 19:32 4.78798 46.96179 36925 ft 476 kts 31°
2026-04-26 19:33 4.84438 46.99577 36926 ft 476 kts 31°
2026-04-26 19:33 4.90113 47.02995 36928 ft 476 kts 31°
2026-04-26 19:34 4.95798 47.06420 36927 ft 477 kts 31°
2026-04-26 19:34 5.01486 47.09848 36928 ft 477 kts 31°
2026-04-26 19:35 5.07138 47.13255 36928 ft 477 kts 31°
2026-04-26 19:35 5.12824 47.16683 36929 ft 477 kts 31°
2026-04-26 19:36 5.17559 47.19538 36925 ft 478 kts 31°
2026-04-26 19:36 5.24184 47.23534 36928 ft 478 kts 31°
2026-04-26 19:37 5.29878 47.26969 36930 ft 478 kts 31°
2026-04-26 19:37 5.35580 47.30410 36928 ft 478 kts 31°
2026-04-26 19:38 5.41292 47.33857 37140 ft 481 kts 31°
2026-04-26 19:38 5.44154 47.35585 37615 ft 479 kts 31°
2026-04-26 19:38 5.46966 47.37282 38105 ft 477 kts 31°
2026-04-26 19:39 5.49800 47.38993 38568 ft 476 kts 31°
2026-04-26 19:39 5.52638 47.40707 38853 ft 477 kts 31°
2026-04-26 19:39 5.58301 47.44126 38928 ft 470 kts 31°
2026-04-26 19:40 5.63926 47.47524 38926 ft 474 kts 31°
2026-04-26 19:40 5.69532 47.50930 38926 ft 474 kts 32°
2026-04-26 19:41 5.75159 47.54386 38930 ft 474 kts 32°
2026-04-26 19:41 5.79832 47.57253 38931 ft 474 kts 32°
2026-04-26 19:42 5.86409 47.61284 38928 ft 474 kts 32°
2026-04-26 19:42 5.92000 47.64711 38926 ft 474 kts 32°
2026-04-26 19:43 5.97630 47.68163 38923 ft 474 kts 32°
2026-04-26 19:43 6.03253 47.71611 38926 ft 474 kts 32°
2026-04-26 19:44 6.08891 47.75070 38937 ft 474 kts 32°
2026-04-26 19:44 6.14483 47.78500 38934 ft 475 kts 32°
2026-04-26 19:45 6.20121 47.81961 38927 ft 475 kts 32°
2026-04-26 19:45 6.25763 47.85424 38929 ft 475 kts 32°
2026-04-26 19:46 6.31408 47.88890 38934 ft 475 kts 32°
2026-04-26 19:46 6.37012 47.92332 38934 ft 476 kts 32°
2026-04-26 19:47 6.41709 47.95217 38940 ft 476 kts 32°
2026-04-26 19:47 6.48310 47.99274 38943 ft 476 kts 32°
2026-04-26 19:48 6.53921 48.02722 38935 ft 476 kts 32°
2026-04-26 19:48 6.59565 48.06192 38934 ft 476 kts 32°
2026-04-26 19:49 6.65215 48.09667 38937 ft 476 kts 32°
2026-04-26 19:49 6.70866 48.13143 38940 ft 476 kts 32°
2026-04-26 19:50 6.76479 48.16598 38937 ft 476 kts 32°
2026-04-26 19:50 6.82125 48.20072 38947 ft 476 kts 32°
2026-04-26 19:51 6.87783 48.23556 38943 ft 476 kts 32°
2026-04-26 19:51 6.93432 48.27035 38946 ft 476 kts 32°
2026-04-26 19:52 6.99050 48.30496 38944 ft 477 kts 32°
2026-04-26 19:52 7.04707 48.33982 38947 ft 477 kts 32°
2026-04-26 19:53 7.10362 48.37467 38952 ft 477 kts 32°
2026-04-26 19:53 7.15984 48.40933 38949 ft 477 kts 32°
2026-04-26 19:54 7.21646 48.44425 38950 ft 477 kts 32°
2026-04-26 19:54 7.27311 48.47920 38948 ft 478 kts 32°
2026-04-26 19:55 7.32973 48.51414 38956 ft 478 kts 32°
2026-04-26 19:55 7.38618 48.54869 38959 ft 478 kts 32°
2026-04-26 19:56 7.44326 48.58313 38960 ft 478 kts 32°
2026-04-26 19:56 7.50035 48.61765 38961 ft 479 kts 32°
2026-04-26 19:57 7.55744 48.65224 38967 ft 479 kts 32°
2026-04-26 19:57 7.61419 48.68665 38964 ft 479 kts 32°
2026-04-26 19:58 7.67129 48.72127 38969 ft 479 kts 32°
2026-04-26 19:58 7.72847 48.75596 38974 ft 480 kts 32°
2026-04-26 19:59 7.78564 48.79065 38979 ft 479 kts 32°
2026-04-26 19:59 7.84241 48.82511 38972 ft 479 kts 32°
2026-04-26 20:00 7.89954 48.85980 38976 ft 479 kts 32°
2026-04-26 20:00 7.95663 48.89447 38972 ft 479 kts 32°
2026-04-26 20:01 8.01365 48.92912 38969 ft 479 kts 32°
2026-04-26 20:01 8.07070 48.96379 38969 ft 478 kts 32°
2026-04-26 20:02 8.12731 48.99821 38966 ft 478 kts 32°
2026-04-26 20:02 8.17462 49.02698 38968 ft 478 kts 32°
2026-04-26 20:03 8.24123 49.06751 38961 ft 478 kts 32°
2026-04-26 20:03 8.29811 49.10213 38956 ft 478 kts 32°
2026-04-26 20:04 8.35469 49.13658 38959 ft 478 kts 32°
2026-04-26 20:04 8.41164 49.17126 38952 ft 478 kts 32°
2026-04-26 20:05 8.46859 49.20595 38958 ft 478 kts 32°
2026-04-26 20:05 8.52554 49.24066 38960 ft 478 kts 32°
2026-04-26 20:06 8.58206 49.27512 38967 ft 478 kts 32°
2026-04-26 20:06 8.63909 49.30990 38976 ft 478 kts 32°
2026-04-26 20:07 8.69597 49.34463 38972 ft 478 kts 32°
2026-04-26 20:07 8.75247 49.37915 38972 ft 477 kts 32°
2026-04-26 20:08 8.80931 49.41388 38980 ft 477 kts 32°
2026-04-26 20:08 8.86611 49.44860 38969 ft 477 kts 32°
2026-04-26 20:09 8.92282 49.48328 38967 ft 477 kts 32°
2026-04-26 20:09 8.97959 49.51800 38969 ft 477 kts 32°
2026-04-26 20:10 9.03599 49.55251 38971 ft 477 kts 32°
2026-04-26 20:10 9.09280 49.58729 38974 ft 477 kts 32°
2026-04-26 20:11 9.14968 49.62212 38977 ft 478 kts 32°
2026-04-26 20:12 9.23469 49.67420 38985 ft 478 kts 32°
2026-04-26 20:12 9.29153 49.70907 39003 ft 478 kts 32°
2026-04-26 20:13 9.34836 49.74393 38996 ft 477 kts 32°
2026-04-26 20:13 9.40510 49.77875 38979 ft 476 kts 32°
2026-04-26 20:14 9.46138 49.81330 38976 ft 476 kts 32°
2026-04-26 20:14 9.51797 49.84805 38980 ft 475 kts 32°
2026-04-26 20:15 9.57446 49.88276 38986 ft 475 kts 32°
2026-04-26 20:15 9.63092 49.91748 38985 ft 474 kts 32°
2026-04-26 20:16 9.68695 49.95193 38983 ft 474 kts 32°
2026-04-26 20:16 9.74333 49.98661 38972 ft 474 kts 32°
2026-04-26 20:17 9.79972 50.02131 38973 ft 474 kts 32°
2026-04-26 20:17 9.85613 50.05604 38975 ft 474 kts 32°
2026-04-26 20:18 9.91248 50.09074 38984 ft 474 kts 32°
2026-04-26 20:18 9.96850 50.12526 38981 ft 474 kts 32°
2026-04-26 20:19 10.02489 50.16002 38974 ft 474 kts 32°
2026-04-26 20:19 10.08127 50.19478 38976 ft 474 kts 32°
2026-04-26 20:20 10.13764 50.22956 38970 ft 474 kts 32°
2026-04-26 20:20 10.19355 50.26407 38974 ft 474 kts 32°
2026-04-26 20:21 10.24983 50.29882 38966 ft 473 kts 32°
2026-04-26 20:21 10.30605 50.33355 38962 ft 473 kts 32°
2026-04-26 20:22 10.36185 50.36803 38961 ft 472 kts 32°
2026-04-26 20:22 10.41792 50.40269 38959 ft 472 kts 32°
2026-04-26 20:23 10.47403 50.43739 38952 ft 472 kts 32°
2026-04-26 20:23 10.53013 50.47210 38961 ft 472 kts 32°
2026-04-26 20:24 10.58583 50.50658 38959 ft 472 kts 32°
2026-04-26 20:24 10.64183 50.54126 38958 ft 472 kts 32°
2026-04-26 20:25 10.69788 50.57598 38959 ft 472 kts 32°
2026-04-26 20:25 10.75392 50.61072 38960 ft 472 kts 32°
2026-04-26 20:26 10.80959 50.64524 38967 ft 472 kts 32°
2026-04-26 20:26 10.86563 50.68000 38970 ft 472 kts 32°
2026-04-26 20:27 10.92157 50.71472 38962 ft 471 kts 32°
2026-04-26 20:27 10.97754 50.74947 38959 ft 471 kts 32°
2026-04-26 20:28 11.03311 50.78399 38964 ft 471 kts 32°
2026-04-26 20:28 11.08901 50.81873 38955 ft 471 kts 32°
2026-04-26 20:29 11.14485 50.85345 38970 ft 470 kts 32°
2026-04-26 20:29 11.20057 50.88811 38958 ft 470 kts 32°
2026-04-26 20:30 11.25593 50.92256 38957 ft 469 kts 32°
2026-04-26 20:30 11.31162 50.95723 38959 ft 469 kts 32°
2026-04-26 20:31 11.36727 50.99189 38947 ft 469 kts 32°
2026-04-26 20:31 11.42292 51.02655 38946 ft 469 kts 32°
2026-04-26 20:32 11.47821 51.06096 38956 ft 468 kts 32°
2026-04-26 20:32 11.53382 51.09556 38943 ft 468 kts 32°
2026-04-26 20:33 11.58931 51.13011 38944 ft 468 kts 32°
2026-04-26 20:33 11.64483 51.16470 38930 ft 467 kts 32°
2026-04-26 20:34 11.69994 51.19906 38929 ft 467 kts 32°
2026-04-26 20:34 11.75543 51.23366 38932 ft 467 kts 32°
2026-04-26 20:35 11.81081 51.26822 38934 ft 467 kts 31°
2026-04-26 20:35 11.86624 51.30282 38929 ft 466 kts 31°
2026-04-26 20:36 11.92112 51.33710 38928 ft 466 kts 31°
2026-04-26 20:36 11.97639 51.37163 38917 ft 465 kts 31°
2026-04-26 20:37 12.03164 51.40617 38915 ft 465 kts 31°
2026-04-26 20:37 12.08683 51.44066 38913 ft 465 kts 31°
2026-04-26 20:38 12.14173 51.47498 38913 ft 466 kts 31°
2026-04-26 20:38 12.19701 51.50955 38916 ft 466 kts 31°
2026-04-26 20:39 12.25231 51.54415 38916 ft 466 kts 31°
2026-04-26 20:39 12.30765 51.57880 38918 ft 466 kts 31°
2026-04-26 20:40 12.36265 51.61326 38921 ft 467 kts 31°
2026-04-26 20:40 12.41803 51.64797 38925 ft 467 kts 31°
2026-04-26 20:41 12.47331 51.68263 38922 ft 466 kts 31°
2026-04-26 20:41 12.52869 51.71736 38921 ft 466 kts 31°
2026-04-26 20:42 12.58390 51.75202 38920 ft 466 kts 31°
2026-04-26 20:42 12.63879 51.78649 38917 ft 466 kts 31°
2026-04-26 20:43 12.69401 51.82119 38914 ft 465 kts 31°
2026-04-26 20:43 12.74921 51.85589 38914 ft 465 kts 31°
2026-04-26 20:44 12.80434 51.89056 38914 ft 465 kts 31°
2026-04-26 20:44 12.85915 51.92505 38914 ft 465 kts 31°
2026-04-26 20:45 12.91433 51.95979 38916 ft 465 kts 31°
2026-04-26 20:45 12.96951 51.99456 38915 ft 465 kts 31°
2026-04-26 20:46 13.02470 52.02934 38916 ft 466 kts 31°
2026-04-26 20:46 13.07944 52.06387 38921 ft 465 kts 31°
2026-04-26 20:47 13.13458 52.09866 38920 ft 465 kts 31°
2026-04-26 20:47 13.18971 52.13345 38918 ft 465 kts 31°
2026-04-26 20:48 13.24479 52.16824 38914 ft 465 kts 31°
2026-04-26 20:48 13.29942 52.20277 38912 ft 465 kts 31°
2026-04-26 20:49 13.35446 52.23757 38918 ft 464 kts 31°
2026-04-26 20:49 13.40949 52.27239 38916 ft 464 kts 31°
2026-04-26 20:50 13.45513 52.30138 38911 ft 464 kts 31°
2026-04-26 20:50 13.51905 52.34200 38912 ft 464 kts 31°
2026-04-26 20:51 13.57395 52.37689 38913 ft 464 kts 31°
2026-04-26 20:51 13.61966 52.40596 38912 ft 465 kts 31°
2026-04-26 20:52 13.67465 52.44094 38914 ft 465 kts 31°
2026-04-26 20:52 13.73854 52.48161 38914 ft 465 kts 31°
2026-04-26 20:53 13.78458 52.51094 38915 ft 465 kts 31°
2026-04-26 20:53 13.83922 52.54576 38915 ft 465 kts 31°
2026-04-26 20:54 13.89421 52.58082 38914 ft 465 kts 31°
2026-04-26 20:54 13.94918 52.61589 38912 ft 465 kts 31°
2026-04-26 20:55 14.00407 52.65093 38913 ft 465 kts 31°
2026-04-26 20:55 14.05901 52.68602 38914 ft 464 kts 31°
2026-04-26 20:56 14.11356 52.72088 38910 ft 464 kts 31°
2026-04-26 20:56 14.16848 52.75599 38910 ft 464 kts 31°
2026-04-26 20:57 14.22339 52.79113 38914 ft 464 kts 31°
2026-04-26 20:57 14.27828 52.82627 38912 ft 464 kts 31°
2026-04-26 20:58 14.33280 52.86119 38905 ft 464 kts 30°
2026-04-26 20:58 14.38769 52.89637 38909 ft 464 kts 30°
2026-04-26 20:59 14.44252 52.93153 38909 ft 465 kts 30°
2026-04-26 20:59 14.49743 52.96677 38910 ft 465 kts 30°
2026-04-26 21:00 14.55199 53.00180 38911 ft 465 kts 30°
2026-04-26 21:00 14.60691 53.03708 38916 ft 465 kts 30°
2026-04-26 21:01 14.66177 53.07234 38912 ft 465 kts 30°
2026-04-26 21:01 14.71683 53.10747 38906 ft 465 kts 30°
2026-04-26 21:02 14.77161 53.14230 38908 ft 465 kts 30°
2026-04-26 21:02 14.82674 53.17743 38909 ft 466 kts 30°
2026-04-26 21:03 14.88188 53.21259 38913 ft 466 kts 30°
2026-04-26 21:03 14.93703 53.24779 38911 ft 466 kts 30°
2026-04-26 21:04 14.99174 53.28273 38906 ft 466 kts 30°
2026-04-26 21:04 15.04687 53.31797 38906 ft 466 kts 30°
2026-04-26 21:05 15.10201 53.35322 38900 ft 466 kts 30°
2026-04-26 21:05 15.15706 53.38844 38904 ft 466 kts 30°
2026-04-26 21:06 15.21223 53.42376 38909 ft 466 kts 30°
2026-04-26 21:06 15.26691 53.45878 38905 ft 466 kts 30°
2026-04-26 21:07 15.32201 53.49410 38902 ft 466 kts 30°
2026-04-26 21:07 15.37707 53.52942 38902 ft 466 kts 30°
2026-04-26 21:08 15.43217 53.56478 38899 ft 466 kts 30°
2026-04-26 21:08 15.48653 53.60055 38900 ft 466 kts 31°
2026-04-26 21:09 15.54096 53.63707 38900 ft 466 kts 31°
2026-04-26 21:09 15.59546 53.67349 38901 ft 466 kts 31°
2026-04-26 21:10 15.65000 53.70988 38895 ft 466 kts 31°
2026-04-26 21:10 15.70414 53.74601 38900 ft 466 kts 31°
2026-04-26 21:11 15.75870 53.78244 38899 ft 466 kts 31°
2026-04-26 21:11 15.81324 53.81890 38896 ft 466 kts 31°
2026-04-26 21:12 15.86777 53.85536 38896 ft 466 kts 31°
2026-04-26 21:12 15.92203 53.89141 38885 ft 466 kts 30°
2026-04-26 21:13 15.97673 53.92738 38893 ft 466 kts 30°
2026-04-26 21:13 16.03146 53.96346 38888 ft 466 kts 30°
2026-04-26 21:14 16.08617 53.99959 38895 ft 466 kts 30°
2026-04-26 21:14 16.14049 54.03550 38899 ft 465 kts 30°
2026-04-26 21:15 16.19514 54.07165 38887 ft 465 kts 30°
2026-04-26 21:15 16.24976 54.10779 38890 ft 465 kts 30°
2026-04-26 21:16 16.30430 54.14391 38889 ft 465 kts 30°
2026-04-26 21:16 16.35890 54.18010 38894 ft 465 kts 30°
2026-04-26 21:17 16.41315 54.21608 38891 ft 465 kts 30°
2026-04-26 21:17 16.46778 54.25233 38892 ft 465 kts 30°
2026-04-26 21:18 16.52237 54.28858 38892 ft 465 kts 30°
2026-04-26 21:18 16.57692 54.32483 38895 ft 465 kts 30°
2026-04-26 21:19 16.63152 54.36114 38889 ft 465 kts 30°
2026-04-26 21:19 16.68576 54.39723 38890 ft 466 kts 30°
2026-04-26 21:20 16.74038 54.43360 38891 ft 466 kts 30°
2026-04-26 21:20 16.79501 54.47000 38899 ft 466 kts 30°
2026-04-26 21:21 16.84963 54.50642 38898 ft 466 kts 30°
2026-04-26 21:21 16.90418 54.54281 38898 ft 466 kts 30°
2026-04-26 21:22 16.95842 54.57901 38918 ft 466 kts 30°
2026-04-26 21:22 17.01302 54.61548 38916 ft 466 kts 30°
2026-04-26 21:23 17.09492 54.67021 38917 ft 466 kts 30°
2026-04-26 21:23 17.14915 54.70649 38924 ft 466 kts 30°
2026-04-26 21:24 17.20370 54.74301 38931 ft 466 kts 30°
2026-04-26 21:24 17.25831 54.77958 38931 ft 466 kts 30°
2026-04-26 21:25 17.31149 54.81862 38932 ft 467 kts 33°
2026-04-26 21:25 17.36398 54.85807 38930 ft 468 kts 33°
2026-04-26 21:26 17.41686 54.89781 38929 ft 468 kts 33°
2026-04-26 21:26 17.46968 54.93756 38928 ft 468 kts 33°
2026-04-26 21:27 17.52254 54.97736 38920 ft 468 kts 33°
2026-04-26 21:27 17.57500 55.01691 38923 ft 467 kts 33°
2026-04-26 21:28 17.62781 55.05674 38910 ft 467 kts 33°
2026-04-26 21:28 17.68059 55.09658 38899 ft 467 kts 33°
2026-04-26 21:29 17.73329 55.13639 38894 ft 467 kts 33°
2026-04-26 21:29 17.78570 55.17601 38886 ft 467 kts 33°
2026-04-26 21:30 17.83835 55.21586 38890 ft 467 kts 33°
2026-04-26 21:30 17.89106 55.25578 38885 ft 467 kts 33°
2026-04-26 21:31 17.94377 55.29573 38881 ft 467 kts 33°
2026-04-26 21:31 17.99651 55.33573 38879 ft 468 kts 33°
2026-04-26 21:32 18.04891 55.37550 38879 ft 468 kts 33°
2026-04-26 21:32 18.10178 55.41540 38878 ft 467 kts 31°
2026-04-26 21:33 18.15631 55.45243 38873 ft 466 kts 30°
2026-04-26 21:33 18.21094 55.48918 38874 ft 467 kts 30°
2026-04-26 21:34 18.26507 55.52611 38871 ft 467 kts 30°
2026-04-26 21:34 18.31954 55.56346 38867 ft 467 kts 30°
2026-04-26 21:35 18.37404 55.60085 38865 ft 468 kts 30°
2026-04-26 21:35 18.42857 55.63828 38868 ft 468 kts 30°
2026-04-26 21:36 18.48269 55.67545 38869 ft 468 kts 30°
2026-04-26 21:36 18.53724 55.71296 38868 ft 468 kts 30°
2026-04-26 21:37 18.59180 55.75050 38869 ft 468 kts 30°
2026-04-26 21:37 18.64635 55.78806 38871 ft 468 kts 30°
2026-04-26 21:38 18.70049 55.82537 38862 ft 468 kts 30°
2026-04-26 21:38 18.75502 55.86297 38859 ft 468 kts 30°
2026-04-26 21:39 18.80952 55.90059 38852 ft 468 kts 30°
2026-04-26 21:39 18.86363 55.93796 38850 ft 468 kts 30°
2026-04-26 21:40 18.91802 55.97556 38849 ft 468 kts 30°
2026-04-26 21:40 18.97473 56.00842 38838 ft 463 kts 20°
2026-04-26 21:41 19.03584 56.02899 38838 ft 460 kts 12°
2026-04-26 21:41 19.09800 56.04555 38838 ft 461 kts 12°
2026-04-26 21:42 19.15976 56.06223 38842 ft 461 kts 12°
2026-04-26 21:42 19.22200 56.07896 38847 ft 462 kts 12°
2026-04-26 21:43 19.28423 56.09567 38842 ft 462 kts 12°
2026-04-26 21:43 19.34657 56.11242 38844 ft 462 kts 12°
2026-04-26 21:44 19.40849 56.12907 38842 ft 462 kts 12°
2026-04-26 21:44 19.47082 56.14584 38841 ft 462 kts 12°
2026-04-26 21:45 19.53314 56.16263 38842 ft 462 kts 12°
2026-04-26 21:45 19.59539 56.17941 38839 ft 462 kts 12°
2026-04-26 21:46 19.65770 56.19621 38837 ft 462 kts 12°
2026-04-26 21:46 19.71957 56.21291 38838 ft 462 kts 12°
2026-04-26 21:47 19.78184 56.22974 38840 ft 461 kts 12°
2026-04-26 21:47 19.84403 56.24656 38822 ft 462 kts 11°
2026-04-26 21:48 19.90633 56.26341 38828 ft 462 kts 11°
2026-04-26 21:48 19.96858 56.27788 38817 ft 460 kts
2026-04-26 21:49 20.03221 56.28081 38827 ft 457 kts 358°
2026-04-26 21:49 20.09590 56.28095 38837 ft 458 kts 358°
2026-04-26 21:50 20.14885 56.28119 38836 ft 458 kts 358°
2026-04-26 21:50 20.22303 56.28141 38841 ft 459 kts 358°
2026-04-26 21:51 20.28718 56.28156 39284 ft 461 kts 358°
2026-04-26 21:51 20.31921 56.28164 39679 ft 460 kts 358°
2026-04-26 21:51 20.35140 56.28172 39821 ft 464 kts 358°
2026-04-26 21:52 20.41511 56.28189 39834 ft 457 kts 358°
2026-04-26 21:52 20.47850 56.28204 39831 ft 459 kts 358°
2026-04-26 21:53 20.54237 56.28194 39832 ft 458 kts 356°
2026-04-26 21:53 20.60566 56.27498 39831 ft 457 kts 350°
2026-04-26 21:54 20.66864 56.26584 39834 ft 457 kts 351°
2026-04-26 21:54 20.73134 56.25687 39829 ft 458 kts 350°
2026-04-26 21:55 20.79446 56.24775 39827 ft 458 kts 350°
2026-04-26 21:55 20.85760 56.23860 39825 ft 458 kts 350°
2026-04-26 21:56 20.92073 56.22943 39824 ft 458 kts 350°
2026-04-26 21:56 20.98343 56.22033 39827 ft 458 kts 350°
2026-04-26 21:57 21.04659 56.21115 39825 ft 458 kts 350°
2026-04-26 21:57 21.10969 56.20196 39830 ft 458 kts 350°
2026-04-26 21:58 21.17253 56.19281 39829 ft 458 kts 350°
2026-04-26 21:58 21.23567 56.18361 39827 ft 459 kts 350°
2026-04-26 21:59 21.29893 56.17438 39829 ft 459 kts 350°
2026-04-26 21:59 21.36220 56.16510 39829 ft 459 kts 350°
2026-04-26 22:00 21.42507 56.15587 39831 ft 459 kts 350°
2026-04-26 22:00 21.48837 56.14657 39831 ft 459 kts 350°
2026-04-26 22:01 21.55160 56.13727 39830 ft 459 kts 350°
2026-04-26 22:01 21.61492 56.12796 39828 ft 459 kts 350°
2026-04-26 22:02 21.67780 56.11870 39828 ft 459 kts 350°
2026-04-26 22:02 21.74111 56.10937 39832 ft 459 kts 349°
2026-04-26 22:03 21.80441 56.10004 39827 ft 459 kts 349°
2026-04-26 22:03 21.86764 56.09070 39826 ft 459 kts 349°
2026-04-26 22:04 21.93050 56.08141 39825 ft 459 kts 349°
2026-04-26 22:04 21.99377 56.07205 39832 ft 459 kts 349°
2026-04-26 22:05 22.05705 56.06269 39833 ft 459 kts 349°
2026-04-26 22:05 22.12032 56.05333 39831 ft 459 kts 349°
2026-04-26 22:06 22.18352 56.04397 39835 ft 459 kts 349°
2026-04-26 22:06 22.24636 56.03465 39833 ft 459 kts 349°
2026-04-26 22:07 22.30963 56.02527 39828 ft 459 kts 349°
2026-04-26 22:07 22.37290 56.01587 39835 ft 459 kts 349°
2026-04-26 22:08 22.43577 56.00657 39850 ft 459 kts 349°
2026-04-26 22:08 22.49933 55.99719 39858 ft 467 kts 349°
2026-04-26 22:09 22.56423 55.98760 39859 ft 471 kts 349°
2026-04-26 22:09 22.62916 55.97801 39862 ft 471 kts 349°
2026-04-26 22:10 22.69409 55.96840 39853 ft 471 kts 349°
2026-04-26 22:10 22.75857 55.95884 39851 ft 471 kts 349°
2026-04-26 22:11 22.82348 55.94921 39865 ft 471 kts 348°
2026-04-26 22:11 22.88850 55.93949 39872 ft 472 kts 348°
2026-04-26 22:12 22.95356 55.92974 39883 ft 472 kts 348°
2026-04-26 22:12 23.01864 55.91999 39883 ft 472 kts 348°
2026-04-26 22:13 23.08330 55.91028 39884 ft 472 kts 348°
2026-04-26 22:13 23.14834 55.90047 39885 ft 472 kts 348°
2026-04-26 22:14 23.18086 55.89556 39774 ft 472 kts 348°
2026-04-26 22:14 23.21342 55.89065 39453 ft 473 kts 348°
2026-04-26 22:14 23.24612 55.88571 39078 ft 476 kts 348°
2026-04-26 22:14 23.27900 55.88074 38718 ft 478 kts 348°
2026-04-26 22:15 23.31196 55.87576 38331 ft 478 kts 347°
2026-04-26 22:15 23.34443 55.87087 37885 ft 477 kts 347°
2026-04-26 22:15 23.37735 55.86589 37451 ft 478 kts 347°
2026-04-26 22:15 23.41030 55.86089 37029 ft 480 kts 347°
2026-04-26 22:16 23.44341 55.85587 36598 ft 481 kts 347°
2026-04-26 22:16 23.47660 55.85084 36181 ft 482 kts 347°
2026-04-26 22:16 23.50989 55.84579 35780 ft 484 kts 347°
2026-04-26 22:16 23.54328 55.84073 35388 ft 485 kts 347°
2026-04-26 22:17 23.57679 55.83565 35003 ft 487 kts 347°
2026-04-26 22:17 23.60996 55.83060 34625 ft 488 kts 347°
2026-04-26 22:17 23.64358 55.82549 34223 ft 488 kts 347°
2026-04-26 22:17 23.67720 55.82070 33808 ft 487 kts 349°
2026-04-26 22:18 23.71115 55.81909 33349 ft 490 kts 355°
2026-04-26 22:18 23.74548 55.82118 32896 ft 500 kts
2026-04-26 22:18 23.78024 55.82501 32443 ft 503 kts
2026-04-26 22:18 23.81504 55.82864 32009 ft 501 kts
2026-04-26 22:19 23.84970 55.83221 31574 ft 500 kts
2026-04-26 22:19 23.88384 55.83573 31152 ft 499 kts
2026-04-26 22:19 23.91839 55.83931 30739 ft 498 kts
2026-04-26 22:19 23.95289 55.84290 30313 ft 498 kts
2026-04-26 22:20 23.98738 55.84651 29887 ft 497 kts
2026-04-26 22:20 24.01010 55.84889 29563 ft 495 kts
2026-04-26 22:20 24.05577 55.85369 28825 ft 491 kts
2026-04-26 22:20 24.08981 55.85726 28244 ft 492 kts
2026-04-26 22:21 24.12425 55.86084 27641 ft 501 kts
2026-04-26 22:21 24.15892 55.86447 27034 ft 501 kts
2026-04-26 22:21 24.19356 55.86811 26428 ft 498 kts
2026-04-26 22:21 24.22746 55.87170 25836 ft 493 kts
2026-04-26 22:22 24.26145 55.87529 25240 ft 488 kts
2026-04-26 22:22 24.29513 55.87887 24644 ft 484 kts
2026-04-26 22:22 24.32840 55.88452 24051 ft 482 kts
2026-04-26 22:22 24.36098 55.89332 23453 ft 484 kts 16°
2026-04-26 22:23 24.39150 55.90894 22701 ft 486 kts 28°
2026-04-26 22:23 24.41848 55.93089 22204 ft 484 kts 39°
2026-04-26 22:23 24.44287 55.95633 21598 ft 483 kts 43°
2026-04-26 22:23 24.46661 55.98229 20993 ft 480 kts 43°
2026-04-26 22:24 24.49012 56.00741 20381 ft 476 kts 42°
2026-04-26 22:24 24.51407 56.03223 19766 ft 471 kts 41°
2026-04-26 22:24 24.53981 56.05406 19254 ft 465 kts 29°
2026-04-26 22:24 24.56865 56.06937 18748 ft 459 kts 17°
2026-04-26 22:25 24.59943 56.07752 18200 ft 452 kts
2026-04-26 22:25 24.63055 56.07833 17577 ft 443 kts 354°
2026-04-26 22:25 24.66127 56.07709 16978 ft 440 kts 355°
2026-04-26 22:25 24.69131 56.07630 16395 ft 436 kts 356°
2026-04-26 22:26 24.72146 56.07558 15808 ft 431 kts 356°
2026-04-26 22:26 24.75127 56.07482 15213 ft 425 kts 356°
2026-04-26 22:26 24.78039 56.07403 14568 ft 411 kts 356°
2026-04-26 22:26 24.80843 56.07325 14066 ft 395 kts 356°
2026-04-26 22:27 24.83535 56.07248 13557 ft 379 kts 356°
2026-04-26 22:27 24.86107 56.07174 13263 ft 359 kts 356°
2026-04-26 22:27 24.88526 56.07105 13078 ft 338 kts 356°
2026-04-26 22:27 24.90812 56.07039 12896 ft 320 kts 356°
2026-04-26 22:28 24.92972 56.06976 12733 ft 311 kts 356°
2026-04-26 22:28 24.95134 56.06909 12656 ft 311 kts 354°
2026-04-26 22:28 24.97213 56.06414 12437 ft 304 kts 333°
2026-04-26 22:28 24.98900 56.05073 12130 ft 297 kts 310°
2026-04-26 22:29 24.99992 56.03180 11796 ft 292 kts 290°
2026-04-26 22:29 25.00577 56.01053 11420 ft 289 kts 284°
2026-04-26 22:29 25.01106 55.98948 11034 ft 288 kts 285°
2026-04-26 22:29 25.01652 55.96808 10594 ft 283 kts 285°
2026-04-26 22:30 25.02168 55.94787 10252 ft 274 kts 285°
2026-04-26 22:30 25.02678 55.92799 9907 ft 265 kts 285°
2026-04-26 22:30 25.03175 55.90867 9494 ft 260 kts 286°
2026-04-26 22:30 25.03666 55.88965 9025 ft 256 kts 286°
2026-04-26 22:31 25.04151 55.87088 8572 ft 253 kts 286°
2026-04-26 22:31 25.04628 55.85240 8159 ft 248 kts 286°
2026-04-26 22:31 25.05093 55.83438 7803 ft 241 kts 287°
2026-04-26 22:31 25.05540 55.81703 7449 ft 235 kts 287°
2026-04-26 22:32 25.05983 55.79989 7083 ft 232 kts 287°
2026-04-26 22:32 25.06424 55.78280 6643 ft 232 kts 287°
2026-04-26 22:32 25.06864 55.76570 6171 ft 232 kts 287°
2026-04-26 22:32 25.07305 55.74857 5682 ft 232 kts 287°
2026-04-26 22:33 25.07745 55.73148 5267 ft 230 kts 287°
2026-04-26 22:33 25.08587 55.69874 4882 ft 213 kts 287°
2026-04-26 22:33 25.08983 55.68330 4785 ft 205 kts 287°
2026-04-26 22:34 25.09360 55.66860 4681 ft 192 kts 287°
2026-04-26 22:34 25.09708 55.65503 4604 ft 187 kts 287°
2026-04-26 22:34 25.10120 55.64140 4497 ft 185 kts 294°
2026-04-26 22:34 25.10673 55.62895 4398 ft 178 kts 299°
2026-04-26 22:35 25.11294 55.61716 4309 ft 179 kts 301°
2026-04-26 22:35 25.11941 55.60541 4157 ft 179 kts 301°
2026-04-26 22:35 25.12590 55.59369 3951 ft 179 kts 301°
2026-04-26 22:35 25.13237 55.58201 3712 ft 178 kts 301°
2026-04-26 22:36 25.13882 55.57036 3491 ft 177 kts 301°
2026-04-26 22:36 25.14513 55.55898 3271 ft 175 kts 301°
2026-04-26 22:36 25.15132 55.54781 3054 ft 167 kts 301°
2026-04-26 22:36 25.15727 55.53707 2853 ft 163 kts 301°
2026-04-26 22:37 25.16318 55.52639 2642 ft 163 kts 301°
2026-04-26 22:37 25.16912 55.51566 2422 ft 165 kts 301°
2026-04-26 22:37 25.17507 55.50492 2226 ft 164 kts 301°
2026-04-26 22:37 25.18098 55.49426 2012 ft 162 kts 301°
2026-04-26 22:38 25.18673 55.48386 1798 ft 155 kts 300°
2026-04-26 22:38 25.19196 55.47443 1628 ft 139 kts 299°
2026-04-26 22:38 25.19684 55.46562 1444 ft 131 kts 299°
2026-04-26 22:38 25.20157 55.45714 1286 ft 130 kts 301°
2026-04-26 22:39 25.20630 55.44850 1113 ft 133 kts 300°
2026-04-26 22:39 25.21112 55.43975 956 ft 135 kts 301°
2026-04-26 22:39 25.21612 55.43086 790 ft 138 kts 300°
2026-04-26 22:39 25.22105 55.42165 618 ft 140 kts 300°
2026-04-26 22:40 25.22606 55.41263 397 ft 140 kts 300°
2026-04-26 22:40 25.23110 55.40350 230 ft 141 kts 300°
2026-04-26 22:40 25.23621 55.39437 41 ft 139 kts 300°
2026-04-26 22:40 25.24056 55.38645 29 ft 100 kts 301°
2026-04-26 22:41 25.24359 55.38102 31 ft 69 kts 302°
2026-04-26 22:41 25.24574 55.37712 27 ft 51 kts 301°
2026-04-26 22:41 25.24734 55.37424 27 ft 37 kts 298°
2026-04-26 22:41 25.24783 55.37213 29 ft 24 kts 272°
2026-04-26 22:42 25.24785 55.37151 29 ft 8 kts 271°
2026-04-26 22:42 25.24787 55.37070 28 ft 13 kts 271°
2026-04-26 22:42 25.24801 55.36958 27 ft 16 kts 292°
2026-04-26 22:42 25.24846 55.36856 27 ft 16 kts 291°
2026-04-26 22:43 25.24873 55.36732 27 ft 18 kts 283°
2026-04-26 22:43 25.24925 55.36608 26 ft 18 kts 301°
2026-04-26 22:43 25.24979 55.36509 26 ft 16 kts 301°
2026-04-26 22:43 25.25042 55.36397 26 ft 18 kts 302°
2026-04-26 22:44 25.25111 55.36277 26 ft 18 kts 302°
2026-04-26 22:44 25.25180 55.36151 26 ft 20 kts 301°
2026-04-26 22:44 25.25256 55.36016 26 ft 21 kts 302°
2026-04-26 22:44 25.25325 55.35895 26 ft 14 kts 302°
2026-04-26 22:45 25.25378 55.35803 26 ft 15 kts 302°
2026-04-26 22:45 25.25423 55.35723 29 ft 9 kts 302°
2026-04-26 22:45 25.25459 55.35660 29 ft 11 kts 301°
2026-04-26 22:45 25.25465 55.35599 30 ft 7 kts 224°
2026-04-26 22:46 25.25412 55.35557 31 ft 11 kts 212°
2026-04-26 22:46 25.25370 55.35529 32 ft 0 kts 211°
2026-04-26 22:46 25.25353 55.35518 31 ft 4 kts 211°
2026-04-26 22:46 25.25340 55.35509 30 ft 1 kts 211°
2026-04-26 22:47 25.25332 55.35504 29 ft 1 kts 211°
2026-04-26 22:47 25.25331 55.35503 29 ft 0 kts 211°